Location: 10033 Water Well
(34.0865°N, 106.8959°W)
Time: 22:01:10
(UTC+00:00)

Okean 2 - Pass Details

Date: 13 January 2026
Orbit: 515 x 525 km, 82.5° (Epoch: 11 February)

Event Time Altitude Azimuth Distance (km) Brightness Sun altitude
Rises 01:14:09 0° 169° (S) 2,641 6.9 -11.5°
Reaches altitude 10° 01:16:22 10° 162° (SSE) 1,756 5.9 -11.9°
Maximum altitude 01:19:58 39° 92° (E) 792 3.7 -12.6°
Enters shadow 01:23:33 10° 23° (NNE) 1,750 5.5 -13.3°
